UAE652 VRMM-VCBI

Flight info

Callsign UAE652
Flight time 1h 8m
Altitude 35000
Route HOKEY M512 TELIG
Aircraft B77W/H-SDE1E2E3FGHIJ2J3J4J5M1RWXYZ/LB1D1

Departure

Time 2026-04-30 06:15
Airport Velana International Airport (VRMM)

Arrival

Time 2026-04-30 07:23
Airport Bandaranaike International Colombo Airport (VCBI)
Time Latitude Longitude Altitude Speed Heading
2026-04-30 05:48 4.18593 73.52796 19 ft 0 kts 268°
2026-04-30 06:08 4.18593 73.52802 19 ft 3 kts 269°
2026-04-30 06:08 4.18593 73.52820 22 ft 2 kts 269°
2026-04-30 06:08 4.18594 73.52838 22 ft 3 kts 251°
2026-04-30 06:09 4.18600 73.52851 22 ft 3 kts 221°
2026-04-30 06:09 4.18611 73.52858 21 ft 3 kts 189°
2026-04-30 06:09 4.18630 73.52859 22 ft 3 kts 177°
2026-04-30 06:09 4.18650 73.52858 24 ft 3 kts 178°
2026-04-30 06:10 4.18655 73.52858 23 ft 0 kts 179°
2026-04-30 06:12 4.18625 73.52869 23 ft 7 kts 143°
2026-04-30 06:12 4.18606 73.52896 20 ft 7 kts 124°
2026-04-30 06:13 4.18558 73.52948 19 ft 8 kts 115°
2026-04-30 06:13 4.18550 73.52984 19 ft 8 kts 96°
2026-04-30 06:13 4.18549 73.53041 19 ft 8 kts 90°
2026-04-30 06:13 4.18577 73.53102 19 ft 8 kts
2026-04-30 06:14 4.18711 73.53104 20 ft 38 kts 359°
2026-04-30 06:14 4.19243 73.53105 20 ft 117 kts
2026-04-30 06:14 4.19909 73.53106 18 ft 164 kts 359°
2026-04-30 06:14 4.21205 73.53080 317 ft 194 kts 358°
2026-04-30 06:15 4.22543 73.53075 1216 ft 191 kts 357°
2026-04-30 06:15 4.23903 73.53080 1768 ft 209 kts 358°
2026-04-30 06:15 4.25458 73.53082 2068 ft 239 kts 358°
2026-04-30 06:15 4.27227 73.53083 2503 ft 262 kts 358°
2026-04-30 06:16 4.29070 73.53083 3414 ft 267 kts 358°
2026-04-30 06:16 4.30952 73.53082 4348 ft 272 kts 358°
2026-04-30 06:16 4.32829 73.53313 5102 ft 279 kts 21°
2026-04-30 06:16 4.34349 73.54511 6013 ft 282 kts 57°
2026-04-30 06:17 4.35097 73.56313 6857 ft 281 kts 75°
2026-04-30 06:17 4.35647 73.58214 7666 ft 285 kts 75°
2026-04-30 06:17 4.36210 73.60118 8558 ft 287 kts 75°
2026-04-30 06:17 4.36777 73.62038 9472 ft 288 kts 75°
2026-04-30 06:18 4.37349 73.63978 10299 ft 292 kts 75°
2026-04-30 06:18 4.37941 73.65991 10732 ft 313 kts 75°
2026-04-30 06:18 4.38584 73.68178 10944 ft 342 kts 75°
2026-04-30 06:18 4.39283 73.70546 11296 ft 363 kts 75°
2026-04-30 06:19 4.40009 73.72997 12106 ft 371 kts 75°
2026-04-30 06:19 4.40753 73.75500 13012 ft 377 kts 74°
2026-04-30 06:19 4.41508 73.78033 13940 ft 381 kts 74°
2026-04-30 06:19 4.42269 73.80589 14794 ft 386 kts 74°
2026-04-30 06:20 4.43041 73.83182 15624 ft 390 kts 74°
2026-04-30 06:20 4.43824 73.85812 16454 ft 395 kts 74°
2026-04-30 06:20 4.44614 73.88466 17255 ft 400 kts 74°
2026-04-30 06:20 4.45413 73.91160 18069 ft 405 kts 75°
2026-04-30 06:21 4.46181 73.93852 18764 ft 410 kts 75°
2026-04-30 06:21 4.46960 73.96621 19457 ft 414 kts 75°
2026-04-30 06:21 4.47765 73.99450 20167 ft 418 kts 75°
2026-04-30 06:21 4.48567 74.02228 20842 ft 423 kts 74°
2026-04-30 06:22 4.49398 74.05070 21502 ft 427 kts 74°
2026-04-30 06:22 4.50247 74.07943 22138 ft 432 kts 74°
2026-04-30 06:22 4.51108 74.10845 22785 ft 437 kts 74°
2026-04-30 06:22 4.51982 74.13780 23426 ft 441 kts 74°
2026-04-30 06:23 4.52863 74.16736 23950 ft 445 kts 74°
2026-04-30 06:23 4.53755 74.19728 24462 ft 449 kts 74°
2026-04-30 06:23 4.54651 74.22734 24985 ft 452 kts 74°
2026-04-30 06:23 4.55554 74.25766 25479 ft 456 kts 74°
2026-04-30 06:24 4.56465 74.28826 25985 ft 459 kts 74°
2026-04-30 06:24 4.57380 74.31903 26457 ft 463 kts 74°
2026-04-30 06:24 4.58304 74.35010 26936 ft 467 kts 74°
2026-04-30 06:24 4.59239 74.38153 27401 ft 470 kts 74°
2026-04-30 06:25 4.60177 74.41308 27877 ft 474 kts 74°
2026-04-30 06:25 4.61110 74.44445 28331 ft 477 kts 74°
2026-04-30 06:25 4.62060 74.47642 28764 ft 481 kts 74°
2026-04-30 06:25 4.63016 74.50859 29194 ft 484 kts 74°
2026-04-30 06:26 4.63981 74.54107 29607 ft 487 kts 74°
2026-04-30 06:26 4.64950 74.57366 29982 ft 490 kts 74°
2026-04-30 06:26 4.65925 74.60650 30295 ft 493 kts 74°
2026-04-30 06:26 4.66905 74.63947 30633 ft 495 kts 74°
2026-04-30 06:27 4.67887 74.67253 31025 ft 494 kts 74°
2026-04-30 06:27 4.68865 74.70547 31495 ft 493 kts 74°
2026-04-30 06:27 4.69841 74.73834 31975 ft 491 kts 74°
2026-04-30 06:27 4.70815 74.77113 32455 ft 490 kts 74°
2026-04-30 06:28 4.71788 74.80392 32891 ft 489 kts 74°
2026-04-30 06:28 4.72758 74.83663 33332 ft 488 kts 74°
2026-04-30 06:28 4.73726 74.86928 33791 ft 488 kts 74°
2026-04-30 06:28 4.74692 74.90183 34185 ft 487 kts 74°
2026-04-30 06:29 4.75644 74.93395 34582 ft 485 kts 74°
2026-04-30 06:29 4.76604 74.96634 34982 ft 484 kts 74°
2026-04-30 06:29 4.77563 74.99870 35392 ft 483 kts 74°
2026-04-30 06:29 4.78517 75.03089 35781 ft 481 kts 74°
2026-04-30 06:30 4.79470 75.06306 36168 ft 480 kts 74°
2026-04-30 06:30 4.80419 75.09510 36560 ft 479 kts 74°
2026-04-30 06:30 4.81366 75.12706 36913 ft 479 kts 74°
2026-04-30 06:31 4.83278 75.19164 36928 ft 483 kts 74°
2026-04-30 06:31 4.85176 75.25577 36911 ft 477 kts 74°
2026-04-30 06:32 4.87065 75.31961 36926 ft 476 kts 74°
2026-04-30 06:32 4.88946 75.38320 36924 ft 476 kts 74°
2026-04-30 06:33 4.90832 75.44699 36925 ft 477 kts 74°
2026-04-30 06:33 4.92718 75.51081 36924 ft 478 kts 74°
2026-04-30 06:34 4.94611 75.57489 36928 ft 479 kts 74°
2026-04-30 06:34 4.96503 75.63898 36924 ft 480 kts 74°
2026-04-30 06:35 4.98390 75.70291 36920 ft 480 kts 74°
2026-04-30 06:35 5.00291 75.76732 36921 ft 480 kts 74°
2026-04-30 06:36 5.02186 75.83157 36923 ft 480 kts 74°
2026-04-30 06:36 5.04071 75.89550 36920 ft 480 kts 74°
2026-04-30 06:37 5.05967 75.95984 36920 ft 480 kts 74°
2026-04-30 06:37 5.07859 76.02407 36920 ft 479 kts 74°
2026-04-30 06:38 5.09747 76.08820 36921 ft 479 kts 74°
2026-04-30 06:38 5.11637 76.15191 36920 ft 479 kts 73°
2026-04-30 06:39 5.13601 76.21571 36916 ft 479 kts 73°
2026-04-30 06:39 5.15580 76.27952 36918 ft 478 kts 73°
2026-04-30 06:40 5.17552 76.34341 36919 ft 478 kts 73°
2026-04-30 06:40 5.19506 76.40697 36918 ft 478 kts 73°
2026-04-30 06:41 5.21468 76.47087 36914 ft 479 kts 73°
2026-04-30 06:41 5.23429 76.53476 36916 ft 479 kts 73°
2026-04-30 06:42 5.25390 76.59865 36915 ft 479 kts 73°
2026-04-30 06:42 5.27336 76.66207 36911 ft 479 kts 73°
2026-04-30 06:43 5.29296 76.72597 36914 ft 479 kts 73°
2026-04-30 06:43 5.31259 76.79000 36917 ft 479 kts 73°
2026-04-30 06:44 5.33220 76.85401 36912 ft 479 kts 73°
2026-04-30 06:44 5.35167 76.91757 36912 ft 479 kts 73°
2026-04-30 06:45 5.37132 76.98172 36912 ft 479 kts 73°
2026-04-30 06:45 5.39092 77.04579 36910 ft 480 kts 73°
2026-04-30 06:46 5.41052 77.10983 36912 ft 480 kts 73°
2026-04-30 06:46 5.43012 77.17393 36911 ft 480 kts 73°
2026-04-30 06:47 5.44972 77.23804 36913 ft 480 kts 73°
2026-04-30 06:47 5.46920 77.30178 36911 ft 481 kts 73°
2026-04-30 06:48 5.48882 77.36601 36911 ft 481 kts 73°
2026-04-30 06:48 5.50843 77.43026 36912 ft 481 kts 73°
2026-04-30 06:49 5.52808 77.49463 36912 ft 481 kts 73°
2026-04-30 06:49 5.54757 77.55852 36912 ft 481 kts 73°
2026-04-30 06:50 5.56729 77.62320 36911 ft 482 kts 73°
2026-04-30 06:50 5.58681 77.68723 36912 ft 482 kts 73°
2026-04-30 06:51 5.60642 77.75161 36914 ft 482 kts 73°
2026-04-30 06:51 5.62604 77.81604 36909 ft 482 kts 73°
2026-04-30 06:52 5.64562 77.88038 36915 ft 482 kts 73°
2026-04-30 06:52 5.66510 77.94442 36916 ft 481 kts 73°
2026-04-30 06:53 5.68728 78.00795 36904 ft 482 kts 61°
2026-04-30 06:53 5.72779 78.06091 36917 ft 482 kts 51°
2026-04-30 06:54 5.77089 78.11270 36915 ft 484 kts 51°
2026-04-30 06:54 5.81346 78.16523 36914 ft 485 kts 52°
2026-04-30 06:55 5.85561 78.21824 36912 ft 486 kts 52°
2026-04-30 06:55 5.89782 78.27153 36910 ft 487 kts 52°
2026-04-30 06:56 5.93983 78.32450 36913 ft 487 kts 52°
2026-04-30 06:56 5.98210 78.37776 36912 ft 488 kts 52°
2026-04-30 06:57 6.02477 78.43155 36063 ft 499 kts 52°
2026-04-30 06:57 6.04603 78.45836 35561 ft 494 kts 52°
2026-04-30 06:57 6.06746 78.48537 34980 ft 491 kts 52°
2026-04-30 06:57 6.08179 78.50344 34615 ft 488 kts 52°
2026-04-30 06:58 6.10293 78.53011 34077 ft 485 kts 52°
2026-04-30 06:58 6.13067 78.56507 33314 ft 480 kts 52°
2026-04-30 06:58 6.15341 78.58940 32767 ft 477 kts 41°
2026-04-30 06:58 6.17048 78.60334 32451 ft 475 kts 38°
2026-04-30 06:59 6.19694 78.62313 31930 ft 471 kts 37°
2026-04-30 06:59 6.22342 78.64246 31420 ft 467 kts 37°
2026-04-30 06:59 6.24940 78.66173 30910 ft 463 kts 38°
2026-04-30 06:59 6.27511 78.68128 30411 ft 460 kts 38°
2026-04-30 07:00 6.30035 78.70083 29895 ft 457 kts 39°
2026-04-30 07:00 6.32513 78.72022 29303 ft 447 kts 39°
2026-04-30 07:00 6.34965 78.73946 28797 ft 447 kts 39°
2026-04-30 07:00 6.37419 78.75868 28288 ft 448 kts 39°
2026-04-30 07:01 6.39875 78.77785 27764 ft 443 kts 39°
2026-04-30 07:01 6.42203 78.79756 27259 ft 432 kts 47°
2026-04-30 07:01 6.44139 78.82015 26780 ft 421 kts 52°
2026-04-30 07:01 6.45893 78.84288 26329 ft 412 kts 53°
2026-04-30 07:02 6.47616 78.86555 25872 ft 404 kts 53°
2026-04-30 07:02 6.49349 78.88804 25411 ft 398 kts 53°
2026-04-30 07:02 6.51026 78.90941 24975 ft 392 kts 52°
2026-04-30 07:02 6.52717 78.93067 24515 ft 387 kts 52°
2026-04-30 07:03 6.54397 78.95166 24085 ft 382 kts 52°
2026-04-30 07:03 6.56059 78.97236 23650 ft 378 kts 52°
2026-04-30 07:03 6.57704 78.99284 23165 ft 376 kts 52°
2026-04-30 07:03 6.59360 79.01348 22726 ft 383 kts 52°
2026-04-30 07:04 6.61046 79.03449 22273 ft 387 kts 52°
2026-04-30 07:04 6.62718 79.05534 21810 ft 378 kts 52°
2026-04-30 07:04 6.64354 79.07600 21396 ft 377 kts 52°
2026-04-30 07:04 6.65973 79.09663 20950 ft 375 kts 53°
2026-04-30 07:05 6.69184 79.13768 20092 ft 372 kts 52°
2026-04-30 07:05 6.70778 79.15805 19674 ft 370 kts 52°
2026-04-30 07:05 6.72375 79.17843 19217 ft 369 kts 52°
2026-04-30 07:06 6.73962 79.19868 18796 ft 369 kts 52°
2026-04-30 07:06 6.75548 79.21891 18360 ft 368 kts 52°
2026-04-30 07:06 6.77130 79.23910 17879 ft 367 kts 52°
2026-04-30 07:06 6.78710 79.25925 17419 ft 365 kts 52°
2026-04-30 07:07 6.80276 79.27923 16984 ft 361 kts 52°
2026-04-30 07:07 6.81799 79.29866 16526 ft 346 kts 53°
2026-04-30 07:07 6.83260 79.31730 16117 ft 332 kts 53°
2026-04-30 07:07 6.84647 79.33500 15734 ft 320 kts 53°
2026-04-30 07:08 6.86008 79.35237 15368 ft 311 kts 53°
2026-04-30 07:08 6.87356 79.36961 15029 ft 318 kts 53°
2026-04-30 07:08 6.88755 79.38749 14641 ft 333 kts 53°
2026-04-30 07:08 6.90209 79.40607 14222 ft 341 kts 53°
2026-04-30 07:09 6.91681 79.42486 13804 ft 342 kts 53°
2026-04-30 07:09 6.93152 79.44361 13358 ft 341 kts 52°
2026-04-30 07:09 6.94770 79.46074 12908 ft 338 kts 43°
2026-04-30 07:09 6.96595 79.47564 12522 ft 336 kts 39°
2026-04-30 07:10 6.98459 79.48973 12115 ft 334 kts 38°
2026-04-30 07:10 7.00315 79.50369 11715 ft 332 kts 38°
2026-04-30 07:10 7.02156 79.51771 11327 ft 330 kts 38°
2026-04-30 07:10 7.03973 79.53174 10976 ft 328 kts 39°
2026-04-30 07:11 7.05768 79.54575 10595 ft 326 kts 39°
2026-04-30 07:11 7.07537 79.55964 10427 ft 318 kts 39°
2026-04-30 07:11 7.09254 79.57317 10252 ft 309 kts 39°
2026-04-30 07:11 7.10920 79.58633 10134 ft 300 kts 39°
2026-04-30 07:12 7.12539 79.59914 9996 ft 292 kts 39°
2026-04-30 07:12 7.14133 79.61175 9667 ft 291 kts 39°
2026-04-30 07:12 7.15724 79.62435 9330 ft 290 kts 39°
2026-04-30 07:12 7.17309 79.63690 8990 ft 289 kts 39°
2026-04-30 07:13 7.18888 79.64940 8676 ft 289 kts 39°
2026-04-30 07:13 7.20462 79.66186 8340 ft 288 kts 39°
2026-04-30 07:13 7.22035 79.67431 8013 ft 287 kts 39°
2026-04-30 07:13 7.23606 79.68675 7684 ft 287 kts 39°
2026-04-30 07:14 7.25175 79.69918 7354 ft 287 kts 39°
2026-04-30 07:14 7.26741 79.71163 7023 ft 284 kts 39°
2026-04-30 07:14 7.28270 79.72379 6693 ft 276 kts 39°
2026-04-30 07:14 7.29751 79.73556 6378 ft 268 kts 39°
2026-04-30 07:15 7.31192 79.74702 6050 ft 260 kts 39°
2026-04-30 07:15 7.32607 79.75821 5757 ft 259 kts 39°
2026-04-30 07:15 7.34011 79.76930 5460 ft 261 kts 38°
2026-04-30 07:15 7.35472 79.78084 5167 ft 266 kts 39°
2026-04-30 07:16 7.36924 79.79231 4844 ft 270 kts 38°
2026-04-30 07:16 7.38405 79.80401 4508 ft 271 kts 39°
2026-04-30 07:16 7.39708 79.81720 4168 ft 264 kts 61°
2026-04-30 07:16 7.40222 79.83447 3894 ft 256 kts 91°
2026-04-30 07:17 7.39930 79.85183 3681 ft 251 kts 113°
2026-04-30 07:17 7.39080 79.86726 3459 ft 253 kts 126°
2026-04-30 07:17 7.37015 79.89575 3001 ft 249 kts 128°
2026-04-30 07:18 7.35998 79.90981 2744 ft 247 kts 127°
2026-04-30 07:18 7.34993 79.92323 2591 ft 230 kts 130°
2026-04-30 07:18 7.34030 79.93562 2310 ft 220 kts 130°
2026-04-30 07:18 7.33106 79.94757 2090 ft 215 kts 130°
2026-04-30 07:19 7.32180 79.95955 1881 ft 218 kts 133°
2026-04-30 07:19 7.30997 79.96853 1657 ft 213 kts 165°
2026-04-30 07:19 7.29570 79.96899 1588 ft 203 kts 196°
2026-04-30 07:19 7.28353 79.96291 1513 ft 192 kts 216°
2026-04-30 07:20 7.27319 79.95477 1534 ft 188 kts 219°
2026-04-30 07:20 7.26311 79.94684 1519 ft 180 kts 217°
2026-04-30 07:20 7.25338 79.93931 1503 ft 177 kts 216°
2026-04-30 07:20 7.24347 79.93169 1265 ft 174 kts 217°
2026-04-30 07:21 7.23384 79.92426 1032 ft 176 kts 218°
2026-04-30 07:21 7.22419 79.91683 821 ft 169 kts 220°
2026-04-30 07:21 7.21515 79.90986 625 ft 157 kts 218°
2026-04-30 07:21 7.20705 79.90362 410 ft 134 kts 218°
2026-04-30 07:22 7.19190 79.89193 59 ft 140 kts 218°
2026-04-30 07:22 7.18475 79.88655 32 ft 115 kts 218°
2026-04-30 07:22 7.17939 79.88244 34 ft 79 kts 217°
2026-04-30 07:23 7.17623 79.88001 34 ft 30 kts 218°
2026-04-30 07:23 7.17496 79.87958 34 ft 13 kts 148°
2026-04-30 07:23 7.17435 79.88028 33 ft 14 kts 118°
2026-04-30 07:23 7.17472 79.88111 32 ft 14 kts 41°
2026-04-30 07:24 7.17549 79.88170 32 ft 14 kts 37°
2026-04-30 07:24 7.17627 79.88228 33 ft 14 kts 36°
2026-04-30 07:24 7.17705 79.88286 33 ft 14 kts 36°
2026-04-30 07:24 7.17782 79.88346 32 ft 14 kts 40°
2026-04-30 07:25 7.17849 79.88415 32 ft 14 kts 80°
2026-04-30 07:25 7.17817 79.88478 32 ft 6 kts 156°
2026-04-30 07:25 7.17781 79.88461 32 ft 6 kts 218°
2026-04-30 07:25 7.17748 79.88435 32 ft 0 kts 217°
2026-04-30 07:26 7.17745 79.88433 32 ft 1 kts 217°
2026-04-30 07:26 7.17740 79.88429 32 ft 0 kts 217°